Altus AFB, OK

8:07 PM CDT on October 16, 2019 (GMT -0500)
Altus Air Force Base

Weather History for KLTS - August, 2019

Change the Weather History Date:

Tuesday, August 6, 2019

  Actual Average Record
Temperature  
Mean Temperature 88 °F -  
Max Temperature 101 °F 94 °F 110 °F (2011)
Min Temperature 75 °F 70 °F 66 °F (2004)
Cooling Degree Days 23    
Growing Degree Days 38 (Base 50)    
Moisture  
Dew Point 66 °F    
Average Humidity 52    
Maximum Humidity 81    
Minimum Humidity 24    
Precipitation  
Precipitation 0.00 in - - ()
Sea Level Pressure  
Sea Level Pressure 29.88 in    
Wind  
Wind Speed 6 mph (SSE)    
Max Wind Speed 12 mph    
Max Gust Speed -    
Visibility 10 miles    
Events      
Averages and records for this station are not official NWS values.
T = Trace of Precipitation, MM = Missing Value Source: NWS Daily Summary

Daily Weather History Graph

Daily Weather History Graph

Search for Another Location

Airport or City:

Astronomy

Aug. 06, 2019 Rise Set
Actual Time 6:50 AM CDT 8:34 PM CDT
Civil Twilight 6:23 AM CDT 9:01 PM CDT
Nautical Twilight 5:50 AM CDT 9:34 PM CDT
Astronomical Twilight 5:15 AM CDT 10:09 PM CDT
Moon 1:02 PM CDT (8/6) 12:02 AM CDT (8/6)
Length of Visible Light 14h 38m
Length of Day
13h 43m
Waxing Crescent, 39% of the Moon is Illuminated
Aug 6
Waxing Crescent
Aug 7
First Quarter
Aug 15
Full
Aug 23
Last Quarter
Aug 30
New

Hourly Weather History & Observations

Time (CDT) Temp. Heat Index Dew Point Humidity Pressure Visibility Wind Dir Wind Speed Gust Speed Precip Events Conditions
12:56 AM 80.8 °F 83.2 °F 66.9 °F 63% 29.89 in 10.0 mi SE 9.2 mph - N/A   Clear
1:56 AM 78.4 °F - 68.2 °F 71% 29.90 in 10.0 mi SE 6.9 mph - N/A   Clear
2:56 AM 76.8 °F - 68.5 °F 75% 29.89 in 10.0 mi SE 4.6 mph - N/A   Clear
3:56 AM 75.9 °F - 68.5 °F 78% 29.89 in 10.0 mi SE 5.8 mph - N/A   Clear
4:56 AM 75.7 °F - 69.1 °F 80% 29.91 in 10.0 mi ESE 3.5 mph - N/A   Scattered Clouds
5:56 AM 76.8 °F - 69.4 °F 78% 29.92 in 10.0 mi East 5.8 mph - N/A   Scattered Clouds
6:56 AM 76.6 °F - 70.3 °F 81% 29.93 in 10.0 mi SE 5.8 mph - 0.00 in   Light Drizzle
6:57 AM 77.0 °F - 69.8 °F 78% 29.92 in 10.0 mi SE 5.8 mph - N/A   Partly Cloudy
7:56 AM 77.9 °F - 70.0 °F 76% 29.94 in 10.0 mi East 3.5 mph - 0.00 in   Scattered Clouds
8:56 AM 82.8 °F 86.2 °F 68.9 °F 63% 29.94 in 10.0 mi East 3.5 mph - N/A   Mostly Cloudy
9:56 AM 84.2 °F 87.3 °F 67.8 °F 58% 29.95 in 10.0 mi Calm Calm - N/A   Mostly Cloudy
10:56 AM 88.3 °F 92.4 °F 68.9 °F 52% 29.94 in 10.0 mi SSW 4.6 mph - N/A   Mostly Cloudy
11:56 AM 91.9 °F 97.4 °F 69.4 °F 48% 29.93 in 10.0 mi SW 3.5 mph - N/A   Mostly Cloudy
12:56 PM 93.4 °F 98.1 °F 68.2 °F 44% 29.91 in 10.0 mi Calm Calm - N/A   Scattered Clouds
1:56 PM 97.2 °F 100.2 °F 65.7 °F 35% 29.89 in 10.0 mi SSE 5.8 mph - N/A   Scattered Clouds
2:56 PM 99.7 °F 101.2 °F 61.7 °F 29% 29.87 in 10.0 mi South 10.4 mph - N/A   Scattered Clouds
3:56 PM 100.2 °F 101.5 °F 61.2 °F 28% 29.86 in 10.0 mi South 5.8 mph - N/A   Scattered Clouds
4:56 PM 101.3 °F 101.1 °F 57.7 °F 24% 29.83 in 10.0 mi South 9.2 mph - N/A   Mostly Cloudy
5:41 PM 100.4 °F 99.7 °F 57.2 °F 24% 29.83 in 10.0 mi SE 8.1 mph - N/A   Scattered Clouds
5:56 PM 101.7 °F 101.6 °F 58.1 °F 24% 29.81 in 10.0 mi SSE 6.9 mph - N/A   Scattered Clouds
6:56 PM 99.9 °F 100.4 °F 59.9 °F 27% 29.81 in 10.0 mi SSE 5.8 mph - N/A   Scattered Clouds
7:56 PM 93.4 °F 96.1 °F 66.0 °F 40% 29.80 in 10.0 mi SSE 6.9 mph - N/A   Mostly Cloudy
8:56 PM 88.7 °F 90.4 °F 65.1 °F 45% 29.82 in 10.0 mi SE 8.1 mph - N/A   Mostly Cloudy
9:56 PM 88.5 °F 89.5 °F 63.7 °F 43% 29.84 in 10.0 mi SSE 10.4 mph - N/A   Overcast
10:56 PM 87.3 °F 88.6 °F 63.9 °F 46% 29.85 in 10.0 mi SSE 11.5 mph - N/A   Mostly Cloudy
11:56 PM 84.2 °F 85.6 °F 64.0 °F 51% 29.85 in 10.0 mi SSE 10.4 mph - N/A   Mostly Cloudy